Regional Weather Roundup
Issued by NWS

Home | Current Version | Previous Version | Graphics & Text | Print | Product List | Glossary On
Versions: 1 2 3 4 5 6 7 8 9 10 11 12 13 14 15 16 17 18 19 20 21 22 23 24 25 26 27 28 29 30 31 32 33 34 35 36 37 38 39 40 41 42 43 44 45 46 47 48 49 50
032
ASUS44 KJAN 191610
RWRMS

MISSISSIPPI HOURLY WEATHER ROUNDUP
NATIONAL WEATHER SERVICE JACKSON MS
1100 AM CDT SUN OCT 19 2014

NOTE: "FAIR: INDICATES FEW OR NO CLOUDS BELOW 12,000 FEET WITH NO
SIGNIFICANT WEATHER AND/OR OBSTRUCTIONS TO VISIBILITY.

MSZ001>002-007>008-010>013-018>021-025>028-034>036-191700-
NORTHWEST MISSISSIPPI

CITY           SKY/WX    TMP DP  RH WIND       PRES   REMARKS
CLARKSDALE     FAIR      61  46  59 CALM      30.24S
CLEVELAND      FAIR      63  48  59 NE8       30.22S
GREENWOOD      SUNNY     63  46  54 NE9       30.21F
GREENVILLE     SUNNY     64  47  53 E9        30.22R
GRENADA          N/A    N/A N/A N/A MISG        N/A
OLIVE BRANCH   MOSUNNY   57  46  67 NE5       30.24F
OXFORD         FAIR      57  45  62 E3        30.24S
TUNICA         SUNNY     61  45  55 NE3       30.24F
$$

MSZ003>006-009-014>017-022>024-029>033-037>039-191700-
NORTHEAST MISSISSIPPI

CITY           SKY/WX    TMP DP  RH WIND       PRES   REMARKS
COLUMBUS AFB   SUNNY     63  44  49 NE7       30.20F
CORINTH        FAIR      59  45  58 VRB3        N/A
GOLDN TRIANGLE SUNNY     63  43  48 NE9       30.19F
TUPELO         SUNNY     60  44  55 E7        30.21F
$$

MSZ040-058-191700-
CENTRAL MISSISSIPPI

CITY           SKY/WX    TMP DP  RH WIND       PRES   REMARKS
JACKSON INTL   SUNNY     64  46  52 E7        30.19F
JACKSON HAWKNS SUNNY     64  45  49 E9        30.19F
MERIDIAN KEY   SUNNY     63  44  50 E7        30.18S
MERIDIAN NAS   SUNNY     62  46  55 E10       30.18F
RAYMOND        FAIR      64  59  82 E5        30.19F
VICKSBURG      SUNNY     64  47  53 E8        30.20S
$$

MSZ059>079-191700-
SOUTH MISSISSIPPI

CITY           SKY/WX    TMP DP  RH WIND       PRES   REMARKS
BROOKHAVEN     FAIR      63  48  59 E7        30.19S
HATTIESBURG    SUNNY     65  47  52 VRB6      30.17F
MCCOMB         SUNNY     63  47  55 E8        30.16S
NATCHEZ        SUNNY     63  48  59 E8        30.17F
PINE BELT      SUNNY     63  45  51 NE8       30.18F
$$

MSZ080>082-191700-
COASTAL MISSISSIPPI

CITY           SKY/WX    TMP DP  RH WIND       PRES   REMARKS
BAY ST LOUIS   SUNNY     68  46  45 NE9       30.14S
BILOXI         SUNNY     69  51  53 NE9       30.12F
PASCAGOULA     SUNNY     68  50  52 NE7       30.13S
GULFPORT       SUNNY     69  50  50 NE10      30.12F
$$



USA.gov is the U.S. government's official web portal to all federal, state and local government web resources and services.